Wind_Speed
25 26 27 27 27 28 28 28 26 27 30 31 30 33 33 33 35 31 30 30 31 29
26 26 28 31 30 31 31 31 30 31 32 32 31 33 27 24 25 33 32 30 31 34
27 28 29 30 31 31 33 32 35 35 32 31 31 31 30 31 32 28 29 27 28 32
27 29 29 28 30 30 32 31 32 31 31 31 31 31 31 31 25 22 26 31 34 32
27 29 28 28 31 31 32 32 31 30 31 30 29 28 28 27 25 26 26 28 24 32
27 28 29 29 29 29 31 31 28 26 30 30 30 30 28 22 20 21 24 27 31 28
28 29 29 29 30 28 28 27 21 18 23 29 30 31 31 29 29 28 26 28 28 29
28 28 28 27 28 26 24 24 18 12 12 22 28 29 28 28 31 30 31 34 30 31
28 27 26 26 27 26 26 25 22 20 15 5 16 27 29 27 27 28 25 20 24 29
27 27 25 25 26 26 25 26 25 25 24 22 16 5 13 21 18 15 17 19 22 23
25 25 24 24 25 26 24 24 23 25 28 26 23 21 24 26 26 26 23 20 21 25
22 22 22 22 22 23 21 24 24 25 28 29 28 26 26 33 32 32 30 27 26 27
17 19 20 20 21 21 21 19 24 30 31 31 33 32 30 32 32 32 30 31 31 28
14 15 15 18 21 21 19 23 25 28 33 33 34 35 34 34 34 30 28 27 27 27
Wind_Direction
298 294 289 286 283 281 279 274 268 261 259 256 255 255 250 245 243 241 235 225 229 232
306 302 297 296 291 288 283 276 271 261 257 254 252 252 251 245 236 230 231 230 224 226
310 307 303 299 293 290 286 281 281 259 253 250 249 248 249 253 251 243 237 236 233 228
316 311 309 301 296 294 289 285 286 255 248 246 246 243 240 241 246 237 232 231 234 236
321 317 314 308 304 303 297 293 284 266 248 242 242 240 242 244 245 237 239 245 246 232
324 322 319 314 315 317 313 304 296 276 246 239 236 234 236 238 253 250 246 246 243 242
332 330 326 326 327 334 335 320 314 292 257 240 232 232 240 244 246 249 252 255 252 246
344 343 340 341 345 347 355 349 350 329 283 249 236 234 233 231 233 237 245 244 247 242
353 352 350 353 355 350 358 1 8 22 30 351 243 235 231 228 232 235 234 228 230 223
2 356 359 1 6 2 8 9 14 25 33 40 50 140 209 215 206 190 187 180 170 159
7 359 7 8 16 8 13 21 21 30 40 43 54 74 101 125 114 104 100 111 118 120
17 11 13 11 14 17 21 29 30 35 43 51 56 68 79 96 89 84 82 93 108 116
25 30 30 27 25 27 30 31 42 43 44 53 58 63 71 79 81 75 73 73 78 92
33 40 44 46 45 42 34 46 46 48 47 49 60 63 70 77 80 81 75 71 68 75
Height
717 712 706 700 695 691 686 682 679 679 679 678 676 676 676 676 678 679 679 681 682 684
711 706 700 694 689 683 678 673 670 669 668 668 668 667 666 666 667 670 672 673 675 679
705 700 693 687 681 675 669 665 660 657 657 658 659 659 660 660 659 662 663 665 668 668
700 694 688 681 674 667 661 655 650 646 647 648 649 650 651 652 652 653 655 658 661 660
696 690 683 676 669 662 654 647 641 638 637 638 640 642 643 644 645 646 648 649 651 652
692 686 680 672 664 655 647 639 632 629 627 628 630 633 634 635 636 638 641 642 643 644
690 684 677 669 660 650 642 635 626 620 618 619 621 623 626 628 630 632 635 637 638 639
690 683 675 667 659 649 640 633 623 616 612 612 613 615 618 620 623 625 629 630 631 634
690 682 675 667 659 651 642 634 625 616 610 606 605 607 611 614 616 620 622 624 626 628
691 684 677 669 661 654 645 639 631 622 614 610 605 603 605 610 612 614 618 622 623 626
694 688 680 673 665 658 651 644 638 631 623 617 615 612 610 610 613 617 621 623 626 628
697 691 684 677 670 664 658 651 645 638 631 627 625 621 619 616 620 623 628 631 633 635
700 695 689 682 676 671 665 659 653 646 641 638 634 632 630 628 628 631 637 641 646 647
701 697 693 687 681 676 671 665 659 655 651 648 645 645 641 639 639 643 648 652 655 658